Retour au catalogue

FENGYUN 1C DEB

ActifSSO
NORAD 35125·DEBRIS·🇨🇳 China

Lancé May 10, 1999 depuis Taiyuan Satellite Launch Center

Loading…

Prochains Passages (prochaines 24 heures)

TLE

VieillissantSource: Space-Track

Époque: Sep 5, 2026, 05:33 UTC

1 35125U 99025DLD 26248.23154196  .00001422  00000-0  50964-3 0  9990
2 35125  98.2169 251.0188 0050254 215.6801 144.1023 14.34689307351017

Suivez FENGYUN 1C DEB en temps réel avec AllMySat

Download on the App Store